Weather in Petropavlivka

Ukraine / Kharkiv Region     49°43′15″N   37°43′01″E
temp.,
°C
wind,
m/s
gust,
m/s
humid.,
%
clouds,
%
prec.,
mm/h
press.,
hPa
HPBL,
m
15 april, thu
thu1500:00+10sw3790100 0.0 1014190
03:00+8sw368713 0.0 1015134
06:00+7ssw35918 0.0 101592
09:00+11ssw576299 0.0 1016678
12:00+14s575875 0.0 10151424
15:00+15s465674 0.0 10141292
18:00+14s486490 0.5 10131155
21:00+10ssw35896 2.3 1014140
16 april, fri
fri1600:00+8s49900 0.1 1015219
03:00+7s37900 0.1 1015160
06:00+6sse35943 0.0 1016119
09:00+10s57675 0.0 1017824
12:00+13s675255 0.0 10161730
15:00+12sw565698 0.1 10171124
18:00+11ssw346280 0.0 1017915
21:00+8s237827 0.1 101755
17 april, sat
sat1700:00+8sw3783100 0.6 1018289
03:00+6ssw22925 0.6 101815
06:00+5ssw11949 0.0 101910
09:00+9sw3375100 0.0 1020667
12:00+12wsw455295 0.1 10201579
15:00+14wsw444014 0.1 10202052
18:00+13w444715 0.0 10201329
21:00+8wnw227327 0.0 102121
18 april, sun
sun1800:00+7w33775 0.0 102152
03:00+6wnw38845 0.0 1021156
06:00+6w34915 0.0 102173
09:00+11nnw4669100 0.0 1020683
12:00+15nne4561100 0.0 10201277
15:00+16ene775491 0.1 10201381
18:00+13ene565945 0.0 1022883
21:00+9ene497467 0.0 1023205
19 april, mon
mon1900:00+8e410775 0.0 1024285
03:00+6e410855 0.0 1024213
06:00+6e411879 0.0 1024299
09:00+11ese71163100 0.0 1024963
12:00+15ese91148100 0.0 10231602
15:00+17ese91143100 0.0 10211930
18:00+15ese91349100 0.0 10201291
21:00+12ese91651100 0.0 10191036